Regional Weather Roundup
Issued by NWS Green Bay, WI

Home | Current Version | Previous Version | Graphics & Text | Print | Product List | Glossary Off
Versions: 1 2 3 4 5 6 7 8 9 10 11 12 13 14 15 16 17 18 19 20 21 22 23 24 25 26 27 28 29 30 31 32 33 34 35 36 37 38 39 40 41 42 43 44 45 46 47 48 49 50

000
ASUS43 KGRB 011900
RWRGRB

NORTH-CENTRAL AND NORTHEAST WISCONSIN REGIONAL WEATHER ROUNDUP
NATIONAL WEATHER SERVICE GREEN BAY WI
200 PM CDT SAT AUG 01 2015

WIZ005-009-010>012-018-019-012000-
NORTH CENTRAL WISCONSIN

CITY           SKY/WX    TMP DP  RH WIND       PRES   REMARKS
IRONWOOD       SUNNY     73  54  49 NW14        N/A
MANITOWISH WTR NOT AVBL
ARBOR VITAE    NOT AVBL
EAGLE RIVER    NOT AVBL
LAND O LAKES   NOT AVBL
RHINELANDER    MOSUNNY   78  51  38 NW9       29.93F
PHILLIPS       PTSUNNY   76  52  43 W8        29.92F
ANTIGO         NOT AVBL
TOMAHAWK       NOT AVBL
MERRILL        NOT AVBL
$$

WIZ013-073-012000-
NORTHEAST WISCONSIN

CITY           SKY/WX    TMP DP  RH WIND       PRES   REMARKS
IRON MOUNTAIN  MOSUNNY   78  51  38 NW14      29.87F
MARINETTE      MOSUNNY   79  52  38 NW10G16   29.86F
$$

WIZ017-030-035>037-045-012000-
CENTRAL WISCONSIN

CITY           SKY/WX    TMP DP  RH WIND       PRES   REMARKS
MEDFORD        NOT AVBL
WAUSAU         MOSUNNY   81  47  30 NW12G18   29.91F
MOSINEE        MOSUNNY   79  48  34 W14G24    29.94F
MARSHFIELD     MOSUNNY   80  49  33 NW9G20    29.95F
WISC RAPIDS    MOSUNNY   82  49  31 W8G17     29.95F
STEVENS POINT  NOT AVBL
WAUPACA        NOT AVBL
SHAWANO        NOT AVBL
CLINTONVILLE   MOSUNNY   81  43  26 NW12G18   29.90F
$$

WIZ038-039-048-051-012000-
FOX VALLEY

CITY           SKY/WX    TMP DP  RH WIND       PRES   REMARKS
NWS GREEN BAY  MOSUNNY   81  53  37 NW13G21   29.90F
APPLETON       MOSUNNY   81  45  28 NW17G26   29.92F
OSHKOSH        MOSUNNY   81  51  35 NW8G22    29.91F
FOND DU LAC    SUNNY     83  53  35 W13G23    29.92F
$$

WIZ022-050-052-012000-
EAST CENTRAL WISCONSIN

CITY           SKY/WX    TMP DP  RH WIND       PRES   REMARKS
STURGEON BAY   SUNNY     79  52  38 W13       29.91S
MANITOWOC      NOT AVBL
SHEBOYGAN      SUNNY     81  52  36 W14G23    29.91F
$$

LMZ563-521-522-541>543-012000-
LAKESHORE

STATION/POSITION TIME  TEMP    WIND        PRES    VSBY  WAVE
                       AIR SEA DIR/SP/G                  HT/PER
                 (UTC) (F)     (DEG/KT/KT) (MB)    (MI)  (FT/S)
SHEBOYGAN LKSHOR 1800   78     290/ 15/ 19 1012.9F
KEWAUNEE LKSHORE 1800   77     310/  8/ 13 1011.9F
ALGOMA MARINA    1812          310/ 11/ 17   N/A
TWO RIVERS CG    1755   82                 1013.1      6   1
NORTHPORT PIER   1800   76     280/  5/  9 1011.5F
N MID LAKE BUOY  1750   68 68  240/ 12/ 14 1011.2F         1/ 3
S GREEN BAY BUOY 1800   71 70  250/  6/  8 1013.7F
SISTER BAY LKSHO 1814   81     280/  8/  9   N/A
STURGEON BAY CG  1800   79     290/  7     1012.4      6   0
CHAMBERS ISLAND  1800   78     300/  2/  7 1011.5F
MENOMINEE LKSHOR 1800   76     250/  6/ 10 1012.5F
$$



USA.gov is the U.S. government's official web portal to all federal, state and local government web resources and services.